Powrót do katalogu

NAVSTAR 36

USA 100

AktywnyNawigacjaMEO
NORAD 23027·PAYLOAD·🇺🇸 United States

Wystrzelony Mar 10, 1994 z Cape Canaveral Space Force Station

Loading…

Następne Przeloty (najbliższe 24 godziny)

TLE

ŚwieżeSource: Space-Track

Epoka: Sep 13, 2026, 14:58 UTC

1 23027U 94016A   26256.62412069 -.00000023  00000-0  00000-0 0  9991
2 23027  53.0333 270.8262 0035148 221.9898 315.8050  1.86675094234872

Śledź NAVSTAR 36 w czasie rzeczywistym z AllMySat

Download on the App Store